Flag for Norway Weather past 2 weeks in Bardufoss, Norway

Now
54 °F

Scattered clouds.


Feels Like: 53 °F
Forecast: 53 / 61 °F
Wind: 5 mph from South

Location: Bardufoss

Current Time: Aug 29, 2015 at 9:40:49 PM

Latest Report: Aug 29, 2015 at 8:50 PM


Visibility: N/A

Pressure: 29.56 "Hg

Humidity: 82%

Dew point: 48 °F

Location of BardufossLocation

Historic Weather in Bardufoss — Graph

°F

Bardufoss temperature yesterday

Maximum temperature yesterday: 66 °F (at 12:20 PM)
Minimum temperature yesterday: 55 °F (at 5:50 AM)
Average temperature yesterday: 62 °F

Past Weeks' High & Low Weather Summary

 TemperatureHumidityPressure
High77 °F (Aug 19, 1:50 PM)100% (Aug 14, 10:50 PM)30.30 "Hg (Aug 14, 10:50 PM)
Low36 °F (Aug 15, 4:50 AM)30% (Aug 19, 3:20 PM)29.45 "Hg (Aug 28, 4:50 PM)
Average60 °F71%30.06 "Hg
* Reported Aug 14 7:20 PM — Aug 29 7:50 PM, Bardufoss, Weather by CustomWeather, © 2015

Note: Actual official high and low records may vary slightly from our data, if they occured in-between our weather recording intervals... More about our weather records

Advertising

Bardufoss weather history for previous 24 hours

 ConditionsComfort  
Time TempWeatherWind HumidityBarometerVisibility
7:50 PM
Sat, Aug 29
55 °FScattered clouds.3 mph77%29.56 "HgN/A
6:50 PM59 °FBroken clouds.2 mph68%29.56 "HgN/A
6:20 PM59 °FBroken clouds.3 mph59%29.53 "HgN/A
5:50 PM59 °FPartly sunny.6 mph63%29.53 "HgN/A
5:20 PM59 °FPartly sunny.3 mph63%29.53 "HgN/A
4:50 PM59 °FPartly sunny.7 mph59%29.53 "HgN/A
4:20 PM61 °FPartly sunny.7 mph59%29.50 "HgN/A
3:50 PM61 °FPartly sunny.5 mph63%29.50 "HgN/A
3:20 PM61 °FScattered clouds.6 mph63%29.50 "HgN/A
2:50 PM63 °FScattered clouds.8 mph56%29.50 "HgN/A
2:20 PM61 °FScattered clouds.6 mph59%29.50 "HgN/A
1:50 PM61 °FScattered clouds.7 mph59%29.50 "HgN/A
1:20 PM59 °FScattered clouds.7 mph68%29.50 "HgN/A
12:50 PM61 °FScattered clouds.3 mph68%29.50 "HgN/A
11:50 AM55 °FScattered showers. Broken clouds.7 mph82%29.50 "HgN/A
11:20 AM55 °FScattered showers. Partly sunny.3 mph77%29.50 "HgN/A
10:50 AM54 °FSprinkles. Partly sunny.3 mph94%29.47 "HgN/A
9:50 AM55 °FSprinkles. Partly sunny.5 mph72%29.47 "HgN/A
9:20 AM55 °FScattered showers. Partly sunny.2 mph72%29.47 "HgN/A
8:50 AM55 °FPartly sunny.6 mph72%29.47 "HgN/A
7:50 AM55 °FPartly sunny.10 mph72%29.45 "HgN/A
7:20 AM55 °FPartly sunny.8 mph72%29.45 "HgN/A
6:50 AM55 °FPartly sunny.12 mph72%29.45 "HgN/A
6:20 AM55 °FPartly sunny.10 mph72%29.45 "HgN/A
5:50 AM55 °FPassing clouds.7 mph77%29.45 "HgN/A
4:50 AM54 °FPassing clouds.2 mph82%29.45 "HgN/A
3:50 AM55 °FPassing clouds.13 mph77%29.45 "HgN/A
2:50 AM57 °FPassing clouds.10 mph67%29.45 "HgN/A
1:50 AM57 °FPassing clouds.1 mph72%29.45 "HgN/A
12:50 AM57 °FPassing clouds.3 mph72%29.45 "HgN/A
11:50 PM
Fri, Aug 28
57 °FPassing clouds.6 mph72%29.45 "HgN/A
10:50 PM57 °FPassing clouds.14 mph72%29.45 "HgN/A
9:50 PM59 °FPassing clouds.14 mph68%29.45 "HgN/A
Weather by CustomWeather, © 2015

See weather overviewHow to use our weather pages